Theta_e
324 328 333 336 341 344 345 346 347 347 347 347 346 347 347 346 346 346 347 347 345 345 346 345 345 345 345 344 344 344 344 344 344 344 344 344 344 344 344 344 345 345 345 346 346 346 346 346 346 347 348 347 348 348 349 348 348 348 350 351 352 353 353 352 352 352 352 351 352 354 354 354 353 354 354 354 354 354 352 353 352 351 350 351 354
321 325 328 330 338 342 343 344 345 346 347 346 345 346 346 346 347 347 345 344 344 345 345 345 346 345 346 346 345 345 345 345 344 344 344 344 344 344 344 344 344 345 345 346 346 345 345 346 346 346 346 347 347 347 347 348 348 349 350 351 352 352 352 352 351 351 351 351 351 351 352 353 353 354 354 354 353 353 352 352 352 350 343 352 355
318 317 321 325 334 339 342 343 344 344 345 345 345 345 345 345 345 346 346 346 346 345 342 344 344 345 345 345 345 346 345 345 345 345 344 345 345 345 344 344 344 344 344 346 346 346 346 346 346 346 346 345 345 345 346 346 346 347 349 350 351 352 352 352 352 351 351 351 350 351 349 349 352 354 355 355 354 353 353 352 351 349 345 354 354
310 312 316 322 330 337 340 342 343 343 343 344 344 344 344 344 344 344 345 345 346 346 346 345 346 345 345 343 344 345 345 346 347 347 345 345 345 346 348 347 345 345 345 345 346 346 345 345 345 345 345 347 345 345 346 346 346 347 347 348 350 351 352 353 352 351 350 350 349 347 346 345 348 353 355 354 354 352 352 351 351 350 351 354 353
307 308 312 317 322 331 337 338 339 339 340 340 342 342 343 343 343 343 344 344 345 345 345 345 345 345 345 344 345 345 345 344 345 346 344 346 346 346 347 346 345 345 345 346 346 345 345 345 345 345 345 347 347 345 345 345 345 346 347 347 348 351 351 352 352 351 350 349 348 346 343 344 345 349 354 353 353 352 351 351 351 352 352 353 354
305 306 309 313 319 325 333 335 336 337 338 338 339 340 340 342 343 343 343 343 343 344 344 344 344 344 345 345 345 345 346 346 346 345 345 345 345 346 345 346 345 345 345 345 346 346 346 346 346 345 345 347 348 348 345 345 345 346 346 347 347 348 351 352 351 350 349 347 345 342 342 342 343 345 353 354 353 351 351 351 352 352 352 354 352
304 305 307 311 316 323 328 331 333 334 335 336 336 337 337 338 339 340 341 342 342 342 343 342 343 343 343 343 343 344 344 344 345 345 345 345 346 345 343 345 346 346 346 346 346 346 347 347 347 347 346 347 348 348 346 344 344 344 346 347 347 347 350 351 350 349 347 346 342 341 342 343 343 342 351 353 353 352 351 353 353 353 353 353 352
301 303 304 309 314 321 325 327 330 331 331 331 331 332 333 333 333 334 335 336 338 339 341 342 342 342 342 342 342 343 343 343 343 343 344 344 344 344 344 345 345 346 347 347 346 347 347 348 348 348 348 348 349 348 347 345 345 345 344 345 346 347 349 350 349 347 346 345 341 341 342 342 342 342 349 353 353 352 352 354 353 353 354 353 350
298 299 303 307 311 320 321 324 326 328 328 327 327 328 329 330 330 330 331 332 333 334 336 338 339 339 340 341 342 343 342 343 342 342 342 343 343 343 343 343 344 345 346 347 347 347 348 347 348 348 348 347 348 349 348 348 346 345 345 344 345 346 348 349 348 345 343 343 342 341 341 342 342 342 348 353 353 353 352 352 352 353 353 351 349
296 297 300 304 309 317 319 321 323 325 326 325 325 326 326 327 327 327 327 328 330 330 331 333 335 336 337 337 337 338 339 341 342 342 341 342 342 342 342 342 342 343 344 345 346 347 347 347 347 347 347 347 348 348 348 347 347 346 346 345 345 345 347 348 347 343 341 338 341 341 341 342 342 342 345 353 354 353 352 349 347 346 349 349 348
296 296 298 302 308 315 317 319 320 322 323 324 323 323 324 324 325 325 325 326 327 327 328 329 329 329 329 329 330 333 335 337 339 340 340 340 341 341 341 341 341 342 343 344 346 345 345 345 346 346 347 346 347 347 347 348 348 348 347 347 345 346 346 346 344 342 340 339 340 341 341 342 342 342 347 351 353 353 351 348 346 345 348 349 350
296 296 296 300 310 313 314 316 317 319 320 321 321 322 322 322 322 323 323 323 324 325 325 324 324 325 325 327 328 330 333 334 336 337 338 338 339 340 341 341 341 341 342 343 344 344 346 346 346 346 346 345 346 346 345 345 347 347 347 347 346 345 345 344 343 341 339 338 338 339 340 341 341 343 349 351 354 353 350 348 348 350 351 350 351
296 296 296 297 301 309 311 313 314 316 317 319 319 320 320 320 320 320 321 321 321 321 321 321 321 321 322 324 325 325 326 329 331 334 334 334 336 337 338 338 339 340 341 341 341 343 343 344 345 344 343 344 344 344 345 345 345 346 347 347 346 345 343 341 342 340 340 339 339 338 339 340 341 344 349 352 354 353 353 351 351 351 352 351 351
295 295 296 296 300 306 308 309 311 312 314 316 317 317 317 318 318 318 318 318 318 318 319 319 319 319 319 321 322 321 322 323 324 324 324 326 331 333 333 334 335 336 338 339 341 341 342 343 342 342 343 342 342 344 344 345 345 345 346 346 346 345 341 338 338 340 339 340 339 338 338 339 340 345 349 352 352 352 352 352 351 351 351 352 352
294 295 296 295 295 298 305 307 308 308 309 312 314 313 314 315 315 315 316 316 316 316 316 316 316 317 317 317 318 318 318 319 319 319 319 322 326 329 329 330 332 334 335 336 338 339 341 342 341 339 339 341 342 342 343 344 344 345 345 345 345 342 339 340 339 339 340 340 339 338 338 339 342 346 348 351 352 352 351 352 352 351 351 351 352
295 294 295 294 295 295 296 303 305 306 306 308 310 311 311 311 312 313 313 313 313 313 313 313 313 313 314 314 315 315 315 315 316 316 317 319 322 322 319 320 324 327 330 333 335 337 338 338 339 338 339 339 339 341 341 342 342 343 343 343 341 339 336 333 338 337 339 340 340 338 338 339 343 346 349 350 351 351 351 350 350 351 349 350 351
295 295 293 294 294 294 295 296 300 302 303 304 306 307 308 309 310 310 310 310 311 310 310 310 310 310 310 310 310 310 311 312 313 313 313 315 317 317 315 317 319 320 321 324 327 329 331 333 335 337 337 338 339 339 340 341 342 341 341 340 340 339 335 331 336 338 340 340 340 339 338 338 341 345 349 350 351 351 351 350 349 349 349 349 349
294 293 292 292 293 294 295 294 294 293 294 298 301 305 306 306 307 307 307 308 308 308 308 307 307 307 307 306 307 306 307 308 308 309 310 311 313 313 312 315 318 318 319 319 320 321 323 325 328 332 334 336 338 339 339 339 340 340 338 338 338 337 334 329 334 336 338 338 340 340 339 338 341 344 348 350 350 351 351 350 349 348 349 350 348
293 291 291 291 291 292 293 293 294 292 293 293 293 296 305 304 304 305 305 306 306 305 305 305 304 304 304 304 304 304 305 305 305 305 307 307 308 308 309 312 314 316 316 317 319 320 322 325 327 329 332 333 334 336 338 337 336 337 337 336 334 332 330 330 333 335 336 338 340 340 340 339 340 345 347 349 350 349 350 350 348 348 348 349 348
292 292 291 291 291 291 292 293 293 292 292 293 293 293 301 302 302 303 303 303 303 303 303 302 302 301 302 302 302 301 301 300 303 301 304 305 307 306 306 310 311 312 314 314 316 317 320 322 324 325 325 328 331 331 331 332 333 334 334 333 332 327 333 334 335 335 336 338 339 340 339 339 342 346 348 349 350 350 348 349 348 347 350 348 347
292 290 291 291 290 290 290 292 292 291 291 292 293 293 297 300 298 300 301 301 302 301 300 300 300 298 299 300 299 295 295 296 295 297 302 300 305 306 305 307 309 309 310 311 313 315 317 319 320 321 322 324 324 324 326 329 331 332 333 331 326 331 334 335 336 336 336 337 337 339 339 340 342 346 348 349 348 349 350 348 348 347 349 349 348
288 290 290 290 290 290 289 290 291 291 290 293 293 293 293 296 291 291 294 296 298 299 294 295 297 292 297 294 293 294 295 294 295 300 297 299 300 304 304 305 306 307 307 308 310 312 313 315 316 317 318 318 318 321 324 326 328 330 328 325 328 332 334 336 336 336 336 337 336 337 338 341 344 346 347 348 348 348 348 349 345 347 346 348 346
287 288 289 290 289 290 289 290 291 291 290 290 292 292 291 290 290 291 293 295 295 294 291 292 291 291 292 292 293 292 293 293 294 298 299 301 300 302 302 303 304 304 305 306 307 309 310 311 313 314 314 313 314 317 322 326 329 324 323 328 330 331 333 335 335 335 335 336 336 335 337 341 344 345 345 347 348 347 347 349 346 344 347 346 347
287 288 289 291 289 289 289 289 291 290 290 290 291 290 290 289 290 290 291 290 290 292 290 290 290 291 291 291 292 293 293 292 297 297 298 294 295 300 300 301 302 303 304 303 305 306 308 308 309 310 310 310 311 314 317 321 324 327 330 332 332 332 333 334 334 335 335 333 334 334 336 341 343 345 346 346 348 348 348 349 349 346 343 345 347
288 289 289 289 288 288 288 288 289 290 290 289 289 290 291 289 289 290 291 290 290 290 289 289 290 290 290 291 292 292 292 291 291 291 292 292 292 292 293 294 295 295 302 297 299 301 302 301 303 305 304 307 309 311 313 316 319 323 326 330 332 333 333 333 333 334 334 334 334 332 333 338 342 345 347 348 346 346 348 349 349 348 344 343 346
291 286 287 286 288 288 288 288 288 289 289 288 289 291 289 288 288 290 290 288 291 289 288 289 289 289 289 290 291 290 290 290 290 291 291 291 291 292 292 293 293 293 296 296 298 299 299 300 300 301 302 305 306 308 310 312 314 316 320 324 329 331 332 332 332 332 333 334 333 330 332 335 340 342 344 347 347 345 348 349 350 349 346 344 345
286 286 286 286 290 286 287 287 287 289 289 288 288 288 287 288 288 291 290 288 289 288 288 288 288 289 289 290 290 289 289 289 289 290 290 291 291 291 292 292 292 292 293 294 295 297 298 298 299 299 301 303 304 306 307 309 310 311 313 315 320 326 330 331 331 331 332 333 329 328 329 331 338 342 343 346 347 346 345 347 349 349 347 344 345
285 286 286 286 288 286 287 285 286 289 287 288 287 287 287 288 289 292 287 293 289 287 287 288 288 287 289 289 290 288 288 288 288 289 289 290 290 291 291 292 292 291 292 293 294 295 295 296 297 298 300 301 302 303 304 305 305 305 308 310 313 316 322 330 331 331 331 332 332 328 327 329 332 336 341 343 346 347 347 344 348 348 346 345 344
285 286 286 286 287 289 287 285 285 286 288 288 286 287 287 287 287 287 287 295 287 287 287 287 286 287 287 288 289 288 287 287 287 288 288 289 289 290 290 290 290 290 291 292 293 293 294 294 295 296 298 299 300 301 302 302 302 303 305 307 310 313 316 320 326 330 331 331 331 329 327 328 332 334 337 342 343 345 347 347 345 346 349 342 346
285 285 286 286 285 288 286 286 286 288 289 287 287 287 287 286 287 287 287 290 286 287 287 285 286 286 286 287 287 287 286 286 286 286 286 286 287 287 288 288 289 290 291 291 292 292 292 293 294 295 296 297 299 300 299 299 299 301 302 303 306 309 314 317 322 327 329 330 331 330 325 326 329 334 336 338 341 343 345 346 346 345 345 350 348
287 286 285 285 290 286 286 286 286 291 288 287 287 287 287 286 288 287 286 286 286 288 286 286 286 285 286 286 286 286 286 285 285 284 284 285 285 285 286 287 287 289 290 291 292 292 292 292 293 294 295 296 298 298 298 297 298 299 300 302 304 307 310 315 320 323 327 329 330 330 330 324 326 329 332 335 338 340 342 344 346 345 344 347 346
284 284 285 286 286 286 285 286 287 288 289 286 288 287 286 287 288 286 286 287 287 286 285 285 286 284 285 284 285 284 286 284 284 284 284 284 284 285 285 286 286 287 289 289 290 291 292 292 293 294 295 296 296 297 297 297 297 298 299 300 302 304 308 312 316 320 323 326 328 330 330 329 324 325 327 332 337 338 340 341 342 343 343 342 345
284 284 285 287 285 285 287 287 287 287 286 287 286 286 286 286 286 286 286 288 285 285 284 284 284 284 285 284 284 284 285 284 283 284 285 283 284 284 284 284 285 286 286 287 288 289 291 291 292 293 294 294 295 295 296 296 296 297 298 299 301 302 305 308 312 316 320 324 327 328 330 330 330 324 323 325 330 335 338 339 340 342 344 343 345
284 284 284 284 287 288 289 289 290 286 289 287 289 286 286 286 289 285 287 286 284 284 285 283 284 284 284 283 283 283 284 283 283 283 283 283 283 282 282 283 284 284 284 285 285 287 288 290 291 292 294 294 293 294 294 295 296 297 297 298 299 299 301 303 306 311 315 320 325 328 329 329 330 330 329 323 323 327 333 336 338 340 341 341 343
288 283 283 284 286 285 289 288 290 286 286 285 286 286 288 286 285 284 284 284 284 283 282 283 282 283 283 282 283 283 284 283 283 283 283 282 282 282 282 282 283 283 283 284 284 285 286 287 290 290 292 292 293 294 294 294 295 295 296 297 297 297 298 299 302 305 309 315 319 323 326 328 329 329 330 329 320 321 326 331 336 338 340 340 342
283 283 283 287 284 283 287 285 286 285 285 287 286 285 285 285 284 287 284 283 283 283 282 282 283 282 282 282 282 283 284 282 283 283 282 282 281 281 282 282 282 282 283 283 284 284 285 286 288 289 290 291 292 292 294 293 294 295 296 296 296 296 296 297 298 301 305 309 315 320 324 326 328 329 324 329 328 324 321 325 330 334 336 337 340
283 283 282 283 283 283 287 285 285 285 285 284 284 284 284 283 282 283 282 283 282 282 281 282 282 281 282 281 282 283 282 282 282 282 281 281 281 281 281 281 282 282 282 282 283 283 283 285 286 288 289 290 291 291 292 293 294 294 295 294 295 295 295 296 297 299 303 306 310 315 323 325 325 320 328 329 328 328 323 321 325 328 328 331 335
282 283 282 283 282 283 283 285 285 285 285 284 285 284 283 283 282 282 285 282 281 281 281 282 281 282 281 281 282 281 282 281 281 282 281 281 281 280 281 281 281 281 281 281 281 282 282 283 284 285 287 288 289 290 291 292 293 294 294 294 294 295 295 296 297 299 301 303 306 310 315 323 327 327 328 328 329 328 327 323 321 322 321 324 331
282 282 281 282 283 282 285 285 287 284 284 284 284 284 283 281 281 281 281 281 281 281 281 281 282 281 280 281 281 281 281 281 281 281 280 280 280 280 280 280 281 280 280 280 280 281 282 282 282 282 284 286 287 289 290 292 293 293 293 294 294 294 295 296 297 297 299 302 305 308 313 319 324 326 327 328 329 328 327 327 326 324 323 320 327
281 281 283 282 282 282 282 283 284 283 283 283 283 282 281 281 280 280 279 280 279 281 281 280 280 280 281 281 280 280 280 281 280 280 280 280 280 280 279 280 280 280 279 279 280 280 280 280 280 281 281 283 286 288 291 291 292 292 293 293 294 294 294 295 295 296 298 301 304 307 311 316 322 325 326 327 328 328 328 327 324 326 325 322 321
280 281 282 281 281 282 284 281 282 282 283 282 281 280 279 279 279 279 278 278 279 281 280 280 280 280 280 280 280 280 280 280 280 280 279 280 280 279 279 279 279 279 279 279 280 280 280 280 280 281 281 281 282 286 289 292 291 290 292 291 292 293 294 294 295 296 298 300 304 307 311 315 319 323 324 326 326 327 328 327 327 327 326 326 323
281 280 281 282 281 281 281 281 282 281 281 281 281 281 279 279 278 278 278 278 278 278 278 279 280 281 280 279 279 279 279 279 280 279 280 279 278 278 278 278 279 279 280 280 280 281 279 279 279 278 280 280 281 285 288 290 288 287 287 287 290 292 293 293 293 294 295 297 300 304 310 314 318 322 325 325 325 327 327 328 327 327 327 326 326
281 281 280 280 280 280 281 281 281 281 281 282 282 280 279 280 279 278 278 277 279 279 279 279 280 280 279 278 279 278 278 278 279 279 279 279 278 278 278 278 278 279 278 278 278 278 278 278 278 278 278 280 283 287 287 289 287 289 289 288 285 286 289 291 293 295 297 298 300 303 308 312 316 319 322 324 325 326 327 327 327 327 327 327 327
281 280 280 280 280 282 280 280 281 280 281 281 283 281 281 281 280 279 279 278 277 280 280 279 278 278 277 278 278 278 278 278 278 278 278 278 278 278 278 278 278 278 278 277 277 277 278 278 278 278 279 279 280 281 284 286 288 289 284 286 286 287 283 285 287 291 297 299 302 308 310 311 315 319 321 322 323 325 326 327 327 327 327 327 327
280 280 280 280 282 281 280 280 280 280 280 283 281 280 281 279 278 278 279 278 278 277 276 276 277 278 278 276 277 277 277 278 278 278 278 278 278 278 277 277 277 277 278 277 277 277 277 277 278 278 278 277 276 278 281 284 286 289 289 286 284 284 283 286 288 288 291 292 296 302 304 309 315 318 320 321 323 325 325 326 326 327 327 327 327
280 280 281 281 281 280 280 280 280 280 280 279 280 280 279 278 276 276 275 275 275 275 274 274 275 275 276 277 277 277 277 277 277 277 277 278 277 277 277 277 277 277 277 277 277 277 276 277 277 277 277 278 277 277 278 281 284 285 288 290 290 285 285 286 286 282 290 292 293 294 296 299 305 315 320 321 321 323 323 324 325 326 327 327 327
280 281 280 280 280 279 279 279 279 279 280 280 279 280 278 277 276 275 275 274 274 275 275 275 275 276 276 276 276 276 277 276 277 277 277 277 277 277 277 277 276 276 277 276 276 276 276 277 278 278 277 278 277 276 276 278 282 285 288 290 292 292 292 288 284 286 285 289 291 293 295 300 304 305 313 319 321 322 323 323 324 325 326 327 327
281 280 280 280 279 280 279 279 279 282 280 279 278 279 278 277 276 275 276 275 275 274 275 275 276 277 276 276 275 276 276 276 276 276 276 276 277 276 276 276 276 276 277 276 276 276 276 277 277 277 277 277 277 276 276 278 279 281 285 287 290 292 292 292 292 288 287 285 287 291 293 295 298 301 303 309 318 321 322 322 323 324 325 326 327
280 281 280 280 280 279 280 279 278 278 279 278 280 278 279 278 276 275 274 276 276 276 276 277 276 275 274 275 275 275 275 275 276 275 276 276 277 276 276 276 275 275 276 276 275 276 275 275 275 276 276 276 276 277 277 278 279 279 280 283 286 288 290 291 292 291 289 287 287 287 288 293 295 297 301 306 312 319 321 323 322 322 322 324 326
280 282 280 279 279 278 279 279 277 277 278 277 277 277 276 277 275 275 274 274 275 274 274 274 274 274 273 274 274 274 274 274 274 275 275 275 275 275 275 275 275 275 276 275 275 275 275 274 274 274 275 274 275 276 276 277 278 278 279 280 284 287 288 288 289 289 289 290 287 287 288 289 289 293 299 303 307 314 320 322 322 322 323 324 325
279 280 280 279 278 278 277 277 277 277 277 277 277 276 276 276 275 275 274 274 274 274 273 273 273 273 273 273 273 273 274 273 274 274 274 274 274 275 275 275 275 276 275 274 274 274 274 274 274 274 274 274 274 275 275 276 277 277 280 284 285 287 286 286 287 288 288 286 287 287 289 291 291 292 295 299 302 308 316 320 321 321 323 324 325
Wind_Speed
12 12 12 15 19 20 20 19 15 12 11 11 12 13 14 12 14 11 7 4 5 5 4 5 5 4 5 4 4 4 4 4 4 5 5 6 7 7 9 10 11 11 10 10 12 12 12 11 10 11 11 11 11 10 10 11 11 10 10 9 9 5 6 7 7 5 4 5 5 7 8 6 6 8 8 9 9 9 9 8 8 7 7 6 11
12 10 8 12 20 19 18 18 19 17 15 14 12 13 14 14 13 11 10 11 11 10 9 7 6 6 7 7 6 6 6 6 6 6 7 6 7 7 7 7 9 11 12 11 12 13 13 12 11 11 11 11 11 11 10 10 11 11 11 11 9 9 6 6 6 4 4 4 4 4 7 7 7 8 9 10 10 10 8 10 10 6 4 9 11
6 7 10 12 17 17 18 18 17 18 18 18 17 17 16 15 14 14 13 12 10 8 10 14 13 11 10 11 10 11 9 9 9 9 8 8 8 8 6 8 7 8 10 11 12 12 12 12 11 11 11 11 10 10 11 10 11 11 10 10 10 9 8 7 5 4 5 5 5 5 6 7 8 9 11 11 12 12 9 10 10 9 5 11 11
9 10 9 11 14 16 18 18 18 18 17 18 18 18 18 17 15 15 15 14 12 11 10 9 10 10 11 13 14 13 14 13 12 12 12 12 11 10 7 5 8 9 10 10 11 12 12 13 12 12 11 9 10 10 10 10 11 11 11 11 11 10 9 7 6 4 5 6 6 5 3 3 5 9 11 11 12 11 9 10 11 11 11 11 13
7 8 8 7 9 14 18 19 20 20 19 19 19 19 19 17 17 17 16 16 15 15 14 12 10 10 11 11 11 12 14 15 16 15 14 14 14 14 12 10 10 10 9 11 12 12 12 13 12 12 12 9 8 8 8 10 10 11 11 11 11 10 9 8 6 5 5 6 6 4 3 3 3 5 11 11 12 11 10 10 11 13 12 12 13
7 7 7 8 8 11 18 19 18 19 19 19 19 20 19 20 19 18 17 17 18 18 16 15 14 13 13 12 12 12 13 13 13 16 17 15 15 15 16 15 15 13 13 12 12 12 12 13 13 13 13 9 8 5 7 9 10 11 12 12 11 11 10 7 7 6 6 6 5 2 3 3 3 3 10 11 13 11 11 11 13 13 12 14 13
6 6 7 8 7 11 17 18 19 19 19 20 21 20 21 21 21 21 20 21 20 19 18 17 17 16 15 15 15 14 14 13 13 14 14 15 15 15 15 15 15 15 15 15 14 14 13 14 13 13 13 12 9 7 7 8 10 11 12 13 12 11 11 8 7 7 7 5 3 2 3 4 3 2 10 12 12 12 12 15 16 16 14 15 15
5 6 7 7 7 12 18 19 19 19 20 20 20 20 20 20 20 20 20 21 21 21 21 20 19 18 17 18 18 17 16 16 16 16 15 13 13 14 16 16 17 17 17 17 16 15 15 15 15 14 13 12 10 8 7 10 10 10 11 11 13 12 11 9 7 7 7 4 3 3 3 4 4 3 9 13 13 13 15 16 16 17 16 16 12
7 7 7 7 8 18 19 20 20 20 20 21 21 21 21 21 21 21 21 21 20 20 21 21 21 21 21 22 21 20 19 18 17 18 18 17 16 15 15 16 17 18 19 18 17 17 17 16 15 15 15 14 11 9 10 10 10 13 11 11 12 12 11 9 8 8 5 3 3 4 4 4 4 4 8 14 14 16 16 15 16 18 18 14 11
5 6 7 6 9 18 19 20 21 21 21 21 21 21 21 21 21 21 21 21 21 21 21 21 21 21 22 21 20 20 20 20 20 19 19 19 18 18 17 16 16 17 18 19 19 19 18 18 17 16 15 15 13 12 11 10 11 9 12 13 11 12 11 11 9 7 4 3 4 4 4 5 4 5 7 13 16 16 15 14 8 9 9 13 12
6 6 6 8 11 18 20 20 20 21 21 21 21 21 21 21 21 21 21 21 21 21 21 22 21 21 22 21 21 20 20 20 20 20 20 20 20 20 19 18 19 19 19 19 20 20 18 18 18 17 16 16 12 12 14 13 9 10 10 11 14 12 11 11 9 4 4 4 4 4 5 8 5 5 9 13 16 18 15 13 12 10 12 13 14
6 5 6 6 11 19 19 20 20 20 20 21 21 21 21 21 21 21 21 21 21 21 21 22 22 22 22 22 22 21 21 22 22 21 21 20 20 20 20 20 20 20 20 21 21 22 22 21 20 20 18 15 13 13 13 14 14 12 12 12 11 14 11 10 7 5 4 5 5 5 5 5 6 7 13 14 17 18 14 13 14 16 15 16 17
5 5 5 5 6 16 19 20 20 20 20 20 20 21 21 21 21 21 21 21 21 21 21 21 21 22 22 22 22 22 21 21 22 22 22 22 21 20 20 20 20 20 20 20 20 20 21 21 21 19 18 17 14 14 15 13 14 14 12 11 11 11 12 11 6 6 5 5 5 5 5 6 6 10 12 16 17 19 17 17 16 16 18 18 19
4 5 4 5 6 12 19 19 19 20 20 19 20 20 20 20 20 20 21 21 21 21 21 21 21 21 21 21 21 21 21 21 21 21 21 21 22 23 22 22 22 21 20 21 20 20 20 21 20 21 21 20 18 16 15 14 13 16 14 12 11 11 12 9 7 6 6 6 6 6 6 6 6 14 15 17 19 21 19 18 19 18 17 18 18
4 5 4 5 5 7 14 18 18 19 20 19 19 20 20 20 20 20 20 21 20 20 21 21 21 21 21 21 20 21 21 21 21 21 21 21 21 21 22 23 23 23 22 22 22 22 21 21 20 20 20 20 21 20 19 17 15 14 14 14 11 10 11 7 6 6 7 7 6 6 7 6 12 16 16 18 20 21 21 19 19 19 17 18 18
4 4 4 4 4 5 6 11 15 16 17 18 18 19 20 20 20 20 20 20 20 20 20 21 21 21 21 21 20 20 20 20 20 20 20 21 21 21 21 21 21 22 22 23 22 21 21 21 21 20 20 19 20 21 20 19 18 15 13 13 13 11 10 8 5 5 6 7 7 6 7 7 15 16 18 20 21 21 22 20 19 18 18 19 19
4 4 5 5 5 4 6 6 8 13 12 15 16 18 19 19 19 19 20 20 19 19 20 20 20 20 20 20 19 19 20 20 20 20 20 20 20 20 21 21 21 20 20 21 22 23 23 23 21 19 20 20 20 20 20 20 20 18 15 13 13 13 11 9 6 6 6 7 7 7 7 7 13 17 20 22 22 21 23 21 19 20 18 22 20
3 4 5 4 5 4 5 5 6 6 6 8 11 15 17 18 18 18 19 19 19 19 19 19 19 19 19 19 18 18 18 18 19 20 20 20 20 19 20 21 20 20 21 21 21 21 22 22 22 21 20 21 21 21 20 19 19 17 16 15 14 14 12 11 6 6 7 8 8 8 7 9 15 16 21 23 23 24 23 22 20 19 19 20 20
3 4 4 5 4 4 4 5 5 5 6 6 6 8 14 15 17 18 18 18 18 19 19 18 18 18 18 17 17 16 15 16 18 17 18 19 19 18 19 20 20 20 21 21 21 21 21 21 21 21 21 21 21 21 21 21 19 18 16 16 15 14 15 10 5 7 8 7 8 8 8 13 16 19 21 23 24 25 25 23 21 21 22 21 19
2 4 4 4 4 4 4 4 5 5 5 5 6 5 8 13 13 15 15 17 17 17 18 17 15 14 15 15 13 10 10 9 14 11 15 17 16 15 18 20 20 20 20 21 21 21 20 20 20 21 22 22 22 22 22 21 20 18 16 16 15 15 10 7 8 8 8 8 8 8 10 15 18 22 23 24 24 24 26 24 23 23 21 19 22
3 4 4 4 4 4 4 4 4 5 5 4 4 4 6 10 7 10 12 13 14 14 14 12 11 9 10 11 9 8 7 7 7 8 11 9 13 14 17 19 19 19 20 20 21 20 20 21 20 21 21 22 22 22 17 18 19 17 16 15 15 11 8 8 8 8 8 8 8 8 13 16 19 23 25 25 25 25 23 25 23 23 21 23 22
4 5 4 4 5 4 4 4 4 5 5 5 4 4 4 6 5 5 5 7 8 9 8 7 8 6 9 7 5 6 6 6 6 8 8 9 9 15 16 18 19 19 19 20 20 20 20 20 21 21 21 21 22 11 10 11 14 14 14 15 11 8 9 9 9 8 9 8 9 10 15 18 22 23 26 26 25 25 25 21 24 24 23 22 25
4 5 5 5 4 4 5 6 5 5 6 5 4 4 5 5 5 5 5 7 7 7 7 7 7 8 8 7 7 6 7 5 6 8 7 10 9 13 15 17 18 18 17 19 18 19 19 20 20 20 20 20 12 9 10 9 9 13 13 9 8 8 9 11 10 9 9 9 9 13 16 20 22 25 25 26 26 25 26 24 23 26 22 22 25
2 2 3 4 5 5 5 5 5 6 6 6 6 6 6 6 6 6 6 6 6 6 6 7 7 8 8 8 7 8 8 7 9 10 8 6 6 8 10 11 12 12 16 11 12 13 18 16 17 19 13 7 8 9 9 10 10 9 9 9 8 9 9 10 10 9 9 10 10 15 17 21 24 25 26 27 27 26 26 25 24 23 24 23 25
0 1 3 4 4 4 4 5 5 5 5 6 6 7 7 7 7 7 7 7 6 7 7 7 7 8 8 7 8 7 7 8 8 8 8 8 8 7 6 6 5 5 8 7 8 8 8 8 8 9 7 8 9 9 9 10 9 10 9 9 10 9 10 10 9 9 10 10 11 16 18 21 24 25 26 26 27 27 26 27 26 25 23 24 21
2 5 3 3 4 3 4 4 4 5 5 5 5 6 6 6 7 7 6 6 7 7 7 7 8 8 7 8 8 8 8 8 8 9 9 9 9 8 8 8 8 7 6 7 6 6 7 7 8 8 8 8 8 8 9 9 9 10 10 11 10 10 8 7 8 9 9 10 11 16 18 21 24 26 27 27 28 29 27 27 27 23 22 25 26
3 1 1 2 2 4 4 4 4 4 6 5 6 6 6 5 6 6 6 6 6 6 6 6 7 7 8 8 9 9 9 9 9 8 9 8 9 10 9 8 8 9 8 8 8 7 6 6 6 8 8 8 9 8 9 9 9 10 10 11 11 12 12 12 12 12 11 11 12 18 19 21 23 26 28 28 29 28 29 28 27 25 23 27 30
1 0 1 1 2 3 3 3 3 3 4 4 4 5 4 5 5 4 6 6 6 7 7 6 6 7 7 8 7 7 8 8 9 9 9 8 8 7 7 9 9 9 9 8 9 8 8 6 7 7 8 8 9 9 9 9 9 9 11 11 11 12 13 12 12 12 10 10 11 15 19 21 22 24 27 31 29 29 29 27 29 28 29 30 29
2 1 1 1 1 1 3 3 3 3 3 3 3 3 4 5 5 5 6 5 6 6 6 6 6 6 6 7 7 8 7 7 8 8 8 8 9 9 8 8 7 8 10 9 8 9 9 9 8 8 7 8 8 9 9 9 8 9 10 11 11 11 11 12 12 11 10 10 10 13 19 21 22 24 24 27 31 30 29 29 30 32 30 33 28
3 2 1 1 2 2 3 2 3 2 2 3 3 4 4 4 4 4 4 4 5 5 4 5 5 6 6 6 7 6 6 7 7 8 8 9 8 8 8 8 8 8 7 9 9 9 9 9 9 9 9 9 8 8 8 9 10 9 9 11 11 10 11 11 12 12 12 12 12 13 19 21 22 25 25 26 29 32 30 29 30 31 31 27 28
2 2 2 1 0 2 2 2 2 2 3 3 3 3 3 3 3 3 4 4 5 5 5 5 5 4 4 4 4 4 6 6 6 7 6 7 7 8 8 8 8 7 8 8 7 8 10 10 10 9 9 10 10 8 8 9 9 10 9 10 11 11 11 11 11 12 13 13 12 13 15 21 23 24 26 26 28 29 32 31 31 31 28 32 31
3 3 2 1 1 0 2 1 1 1 2 2 1 2 2 2 3 3 4 4 4 5 4 4 3 3 3 3 3 4 5 5 5 6 6 6 6 7 7 8 8 8 8 9 10 9 9 9 11 11 10 9 10 9 8 9 10 9 9 11 11 11 12 11 12 13 13 13 13 12 12 14 21 24 25 28 28 30 29 30 31 32 27 31 30
4 3 2 0 0 0 0 1 0 1 1 1 1 2 1 2 3 3 3 3 4 3 2 3 3 2 2 3 3 4 5 5 5 6 6 6 6 8 8 7 8 9 10 12 13 10 9 9 9 9 10 10 11 9 8 9 10 10 9 10 10 11 11 12 12 13 13 13 14 13 13 14 14 20 25 26 27 27 31 30 30 32 30 28 32
4 3 0 1 0 1 1 1 0 0 0 0 1 1 2 2 2 3 3 4 4 2 3 3 2 1 1 3 3 4 5 5 5 5 5 6 7 7 7 7 6 8 10 10 10 10 10 10 10 10 9 9 11 11 10 10 10 9 10 9 9 10 10 12 12 13 13 13 12 13 13 13 13 13 14 23 26 26 27 29 31 31 32 32 31
2 2 3 1 1 1 1 1 0 1 0 1 1 1 1 2 2 2 3 3 3 3 4 3 1 1 2 4 4 5 5 5 5 5 6 6 7 7 7 7 8 9 9 9 10 10 10 11 10 11 11 10 10 10 11 12 12 11 10 10 10 10 10 12 13 14 14 14 13 14 14 14 13 13 14 13 18 26 27 27 31 32 31 31 31
4 5 3 1 1 1 1 1 0 0 1 1 1 1 1 2 2 3 3 3 4 3 4 3 1 2 4 3 3 4 4 5 5 5 6 6 6 7 7 7 8 7 7 8 8 10 10 11 10 10 12 13 11 13 10 12 12 13 11 10 11 10 10 11 13 13 14 13 14 14 14 15 15 14 14 14 13 14 24 26 28 30 32 29 31
5 4 4 3 2 2 1 1 1 0 1 1 1 1 2 2 3 3 3 3 3 4 5 1 1 2 1 2 2 3 4 4 4 5 5 6 7 7 8 9 8 8 8 8 8 8 10 10 10 10 10 13 13 14 13 11 12 13 13 12 11 11 11 11 12 13 13 14 15 16 15 16 16 17 14 14 14 13 18 24 27 29 29 28 30
5 5 4 4 3 3 2 2 1 1 1 1 1 2 3 2 3 3 3 3 3 5 4 0 1 1 1 2 2 3 4 4 4 5 6 7 7 8 8 9 9 9 9 9 9 8 9 9 11 10 10 11 12 13 15 12 12 13 13 14 14 12 12 13 12 12 13 15 16 16 16 15 14 15 15 15 15 14 13 17 24 27 28 27 29
4 5 4 4 4 3 2 1 1 2 2 2 2 2 3 3 3 4 3 3 3 4 4 0 1 1 2 2 2 4 4 5 6 7 7 8 8 8 8 10 9 9 9 9 8 8 8 8 11 13 11 10 12 12 13 14 14 14 14 16 14 15 13 13 12 12 14 15 16 17 15 16 15 15 16 16 15 15 15 13 11 12 17 27 28
5 4 4 4 4 3 2 1 2 2 2 1 1 2 2 3 3 3 3 3 3 3 2 0 1 1 2 1 2 3 3 4 6 6 7 7 7 8 8 8 8 8 9 9 8 7 9 11 12 12 16 12 12 11 11 13 14 16 17 16 15 15 16 14 15 15 14 14 15 14 15 15 16 16 16 16 15 15 15 14 12 12 12 17 25
5 6 5 5 5 5 3 2 3 2 1 1 2 2 2 2 3 3 4 4 3 3 3 1 1 2 2 2 4 4 4 5 6 7 7 7 7 7 8 8 8 8 8 8 8 9 10 9 10 11 14 14 12 10 10 11 13 14 13 15 15 14 15 15 16 15 15 14 14 15 15 15 16 16 15 15 17 16 15 15 13 13 13 11 14
6 6 7 7 5 4 4 3 2 2 2 3 3 2 2 2 3 5 4 5 5 5 6 5 5 5 4 5 5 4 4 5 7 7 7 7 8 7 8 8 8 8 9 9 10 10 11 9 8 11 10 13 13 10 8 8 11 13 13 12 13 13 13 15 16 17 17 16 16 16 15 16 17 16 15 16 17 17 16 14 13 14 13 12 12
10 9 7 5 5 4 4 3 3 3 3 4 3 3 3 3 2 3 3 4 3 3 3 4 3 3 3 3 3 3 3 4 5 6 6 6 7 9 9 9 9 9 11 12 10 11 10 10 9 10 13 11 12 9 10 9 13 12 13 14 14 13 11 10 9 12 13 15 14 16 16 17 19 17 15 14 15 16 15 14 14 14 14 14 13
8 6 5 6 5 5 4 4 3 3 4 4 3 3 3 3 3 4 4 4 4 3 4 3 3 2 4 4 3 4 4 5 6 6 6 7 8 8 8 8 9 8 9 11 11 12 9 9 9 11 12 13 10 10 10 11 13 11 12 10 11 10 14 13 9 7 7 10 12 12 13 15 17 18 15 16 16 14 15 14 16 15 15 15 13
8 8 7 7 5 6 5 5 4 4 4 4 3 3 2 2 2 3 3 3 3 3 2 2 3 3 4 3 3 3 4 5 6 6 6 8 7 8 8 9 9 8 8 10 11 11 12 10 12 11 10 10 15 12 11 11 13 13 14 11 11 12 13 13 9 14 8 10 11 11 11 14 16 17 15 16 16 16 15 16 15 15 15 15 15
9 8 8 7 5 5 4 4 3 4 4 3 3 2 1 1 3 5 7 6 8 8 8 8 9 8 8 7 6 6 6 6 7 8 8 7 8 8 8 10 9 9 7 8 10 12 12 13 10 10 12 10 13 13 15 11 11 16 17 16 14 13 12 7 9 15 10 7 12 13 15 16 14 15 15 15 17 16 15 15 16 15 15 14 14
9 7 6 6 5 4 4 4 4 4 4 3 2 2 0 0 1 1 2 3 5 4 3 4 5 7 6 7 6 5 6 8 8 7 8 8 8 8 9 9 9 8 9 10 11 11 12 10 9 9 11 11 11 12 14 12 12 15 15 16 19 18 16 12 11 10 16 13 8 9 12 12 11 13 15 16 17 16 16 15 16 16 15 15 15
8 7 6 5 6 5 4 4 4 3 3 3 2 1 0 1 2 2 2 3 4 7 6 5 5 6 7 8 7 6 7 7 8 7 8 8 8 9 9 10 9 10 8 11 11 13 11 11 11 13 11 10 10 12 13 13 12 14 11 14 15 15 16 17 16 14 14 16 20 11 10 14 12 11 11 14 16 18 17 16 16 16 14 14 16
7 9 8 7 6 5 4 4 4 3 3 2 1 1 0 1 2 2 3 3 5 5 5 5 6 6 8 7 8 8 8 7 7 8 8 8 9 10 10 10 10 10 10 10 12 11 14 13 13 10 11 10 11 12 12 13 9 13 9 14 14 14 15 14 14 12 12 13 16 17 17 15 12 12 11 11 14 16 18 16 16 17 15 15 14
8 8 7 6 5 4 4 4 3 3 2 2 1 1 1 1 2 2 3 6 4 5 4 7 7 6 8 9 8 8 8 8 7 6 7 7 8 9 10 10 11 11 10 12 11 12 12 12 13 13 13 13 11 12 14 12 12 14 13 14 14 13 13 12 12 12 11 11 15 15 13 14 18 16 11 11 13 15 17 16 16 17 17 16 16
7 7 7 7 5 5 4 3 3 2 2 2 1 2 2 1 2 3 4 6 6 5 8 8 7 8 9 10 9 9 8 9 8 8 6 8 8 9 10 10 10 11 12 10 12 11 11 11 12 14 15 15 11 13 16 16 14 16 16 13 13 12 14 14 11 9 9 9 10 13 13 11 15 18 18 12 13 15 15 16 16 15 17 16 15
Wind_Direction
342 343 338 352 10 12 24 30 33 27 19 9 356 354 9 13 354 345 349 310 303 299 295 294 289 268 277 273 265 260 272 280 282 283 294 309 307 318 323 320 322 322 321 321 322 321 322 319 317 317 311 306 308 311 315 312 313 312 314 311 315 289 267 263 268 283 305 300 298 294 285 275 264 258 233 232 222 201 172 178 185 189 187 196 191
313 331 333 358 9 13 24 30 36 44 41 36 28 26 21 16 11 12 347 346 331 325 319 296 285 289 281 281 277 280 281 280 288 291 294 290 294 290 297 307 308 314 318 319 319 318 318 318 314 311 312 309 309 308 310 310 309 312 323 315 306 302 274 258 263 278 290 292 287 283 288 277 244 239 233 228 226 209 176 181 186 189 185 189 192
309 339 359 1 0 12 25 31 35 38 40 44 42 36 36 32 29 24 17 9 3 354 338 330 325 320 325 309 314 309 297 292 298 294 293 288 276 277 292 285 287 291 304 311 313 313 312 310 310 307 307 305 306 310 309 304 301 306 308 312 304 302 295 272 258 271 285 291 282 274 268 257 242 229 231 227 226 213 183 189 189 187 196 193 188
358 355 355 355 357 14 29 32 35 38 38 38 35 33 34 33 35 36 33 26 20 12 9 348 340 335 336 329 324 320 318 309 304 300 304 306 307 307 310 298 290 295 296 295 301 304 307 307 307 307 304 308 307 303 305 306 304 299 302 303 301 297 296 281 265 275 284 288 287 273 253 246 247 241 229 229 228 222 186 197 191 186 198 200 193
4 353 352 353 0 15 33 36 38 38 37 39 36 34 33 31 31 32 32 32 32 27 24 16 6 357 348 345 338 335 326 323 320 318 318 316 315 316 313 308 304 300 290 291 300 302 305 309 309 311 308 295 279 282 291 294 292 292 294 295 294 290 290 288 277 268 273 278 284 271 244 241 242 252 238 235 226 220 196 196 198 194 200 203 191
349 352 359 2 7 12 30 39 42 43 42 41 40 39 36 33 32 31 29 29 28 29 30 30 25 19 13 9 4 357 350 345 333 326 325 322 317 325 321 318 313 305 300 298 298 299 300 301 306 308 307 296 287 256 271 279 286 290 287 288 285 285 283 272 271 274 272 269 279 262 248 241 243 254 238 236 224 217 195 197 201 200 202 205 193
347 350 4 9 12 17 31 37 41 42 43 42 42 39 38 36 34 33 31 29 27 25 23 24 23 23 22 18 14 12 5 3 357 347 340 335 332 327 317 316 317 314 307 302 299 299 299 299 301 304 303 305 301 286 254 262 278 283 287 288 285 282 280 271 262 260 265 269 259 236 239 242 239 243 237 236 225 211 197 202 203 204 206 205 197
356 10 5 11 15 26 35 38 40 42 42 42 40 41 39 37 36 34 32 30 28 27 26 25 24 21 18 17 13 8 6 6 6 2 357 350 342 334 329 329 325 320 314 308 304 301 299 299 299 299 300 299 302 298 297 286 275 272 280 282 286 283 281 275 264 254 254 254 241 229 233 236 236 235 237 236 219 213 205 205 205 207 208 200 197
19 9 8 11 16 32 36 38 40 41 42 42 41 40 38 37 35 34 32 30 29 28 27 26 23 21 22 22 19 15 11 9 5 4 1 358 355 350 344 340 335 328 326 320 312 308 306 301 299 298 295 293 293 294 296 290 288 288 274 272 277 280 280 273 265 254 253 248 235 227 228 233 235 232 240 237 221 212 209 210 209 207 209 202 196
16 17 14 11 20 33 36 38 39 39 40 40 40 39 38 37 36 35 32 31 29 28 27 26 25 24 23 21 19 16 14 13 11 7 5 0 356 354 352 349 344 338 331 324 322 316 310 306 300 298 297 295 294 295 288 286 287 275 282 279 269 273 275 276 266 256 247 244 241 230 222 226 229 233 236 239 230 215 212 213 207 209 206 200 191
22 20 17 16 25 36 39 38 38 39 39 39 39 38 38 37 35 35 33 31 30 29 27 26 25 23 21 19 17 15 14 14 13 11 9 5 0 359 356 354 351 347 343 336 331 324 320 311 301 299 299 298 301 305 300 292 267 270 269 269 275 271 265 271 270 257 247 241 241 240 232 229 231 227 237 237 237 221 211 214 207 200 201 203 200
24 19 19 22 24 38 40 41 40 40 40 39 37 37 37 36 36 35 33 32 31 30 28 26 23 22 19 18 17 16 14 13 13 12 10 7 2 359 358 356 354 351 347 345 342 337 332 325 318 311 303 302 298 291 291 293 287 273 270 269 265 272 267 262 265 254 243 242 242 243 237 236 231 232 234 237 239 231 217 213 208 205 204 206 205
23 24 21 22 29 36 43 42 41 40 41 40 40 38 38 36 34 33 32 32 31 30 28 27 24 22 20 18 18 17 15 14 14 13 10 9 3 1 359 357 354 350 347 342 341 338 335 333 328 322 311 305 302 296 294 289 288 286 272 264 260 256 258 254 253 247 241 241 241 243 242 239 238 236 238 238 238 234 222 219 211 209 209 208 206
35 26 28 27 34 33 41 42 41 40 40 40 40 40 39 37 36 35 33 31 30 28 27 25 23 22 20 19 18 17 15 14 14 13 11 8 4 3 1 358 354 351 348 344 339 338 335 333 333 334 329 317 309 300 291 285 283 283 281 270 257 251 251 253 247 251 241 237 240 236 240 243 238 243 243 244 242 238 224 221 215 212 208 209 208
51 35 30 32 32 33 34 38 40 40 38 38 39 38 38 37 36 34 33 32 30 29 27 24 21 20 19 18 18 15 14 13 13 12 9 8 8 7 3 356 353 352 349 348 346 345 339 333 332 332 331 328 319 309 298 288 282 280 280 277 263 246 249 249 243 239 244 237 241 234 237 241 245 242 243 244 244 240 231 222 218 215 209 210 207
52 49 40 39 39 37 34 32 36 35 36 35 36 37 36 35 34 33 32 32 30 28 27 24 22 19 18 16 15 13 11 11 10 9 9 8 8 8 3 359 356 353 351 348 345 344 341 338 336 333 330 326 323 316 307 297 290 286 278 274 271 258 245 240 241 235 237 239 237 237 235 239 244 243 242 245 244 243 238 225 225 222 221 219 211
33 41 51 42 38 37 37 32 30 31 28 30 29 35 34 33 32 32 31 30 29 28 27 24 21 18 16 15 14 11 9 8 7 6 5 6 5 5 1 357 355 354 352 350 348 345 343 342 338 333 331 325 319 316 311 305 296 288 281 273 269 266 254 238 239 240 235 236 235 235 236 237 243 245 243 243 244 241 242 228 225 228 221 227 223
26 44 50 45 36 33 32 32 29 25 24 23 20 24 32 30 30 30 28 28 26 25 23 22 20 17 16 12 11 9 7 6 5 3 1 2 1 1 357 355 354 353 353 350 347 344 340 338 336 336 334 328 322 316 313 310 302 296 286 275 268 265 263 248 235 239 240 236 236 234 236 238 242 242 245 244 243 242 241 239 221 223 226 226 225
29 42 50 45 40 33 26 29 28 27 24 22 21 9 22 26 25 27 26 25 25 23 21 19 16 13 11 9 7 5 3 1 0 360 358 358 357 356 353 352 353 352 351 349 347 344 342 340 338 336 334 331 328 325 322 320 313 302 289 283 275 266 261 260 245 238 240 237 235 235 232 237 244 244 244 247 244 242 242 243 230 219 224 226 224
37 37 38 36 43 42 24 24 28 29 27 22 17 18 11 23 19 20 22 22 21 20 17 15 12 6 5 2 1 360 357 354 354 353 352 352 350 349 349 349 349 349 349 347 345 344 341 340 340 337 334 332 330 327 322 315 309 302 291 284 278 271 264 256 251 245 238 238 234 233 233 232 241 246 245 244 244 243 244 243 235 222 216 219 225
17 32 38 23 30 40 24 26 22 24 25 20 23 16 10 21 14 12 14 18 17 18 15 12 8 1 0 356 356 356 356 351 347 347 349 344 343 341 344 345 346 346 345 344 343 342 341 340 338 337 335 332 330 326 317 315 311 303 293 283 279 273 265 258 251 249 245 240 236 235 230 234 238 244 247 247 245 245 243 244 242 227 215 219 223
18 11 15 25 24 25 22 26 21 16 21 22 19 12 12 13 12 8 7 13 10 14 10 9 4 1 359 355 354 352 351 345 342 343 345 341 338 337 339 341 342 343 342 341 340 339 339 338 337 336 336 334 332 327 321 313 306 299 292 286 281 270 267 261 252 250 249 245 239 236 231 235 239 241 244 248 247 245 243 240 247 235 223 216 223
28 10 8 9 15 17 18 18 14 14 14 17 13 7 13 9 7 7 4 8 8 10 8 6 2 360 357 356 356 352 349 346 340 339 336 333 328 331 335 338 338 337 336 337 335 336 335 336 335 334 335 333 332 326 323 318 312 303 292 282 272 269 263 257 253 248 249 248 245 239 234 238 240 242 243 246 247 246 243 242 236 242 223 215 226
38 30 352 358 14 18 8 13 11 7 17 6 7 7 7 6 3 1 2 4 7 6 7 4 2 359 357 355 354 349 348 347 342 341 339 333 328 323 321 326 326 330 329 332 328 328 332 331 331 332 332 329 326 325 321 318 315 311 300 288 275 264 257 256 253 249 248 248 248 242 237 239 240 243 245 246 247 245 244 240 238 237 232 220 220
140 340 15 352 354 15 8 7 1 13 15 7 9 2 3 1 359 358 358 1 2 3 3 2 359 357 357 354 350 349 347 345 345 343 342 338 337 336 332 327 319 315 322 324 323 322 326 326 327 328 325 324 323 322 322 317 316 314 307 296 287 274 263 255 254 251 248 250 248 244 241 242 242 241 245 247 248 247 243 240 238 235 234 227 218
45 51 338 338 347 358 21 1 8 7 15 10 7 355 6 2 355 351 358 355 1 0 358 357 355 356 354 351 349 352 350 346 344 343 339 339 335 336 335 334 333 326 326 319 313 309 316 320 322 320 318 318 315 315 314 314 313 312 309 305 295 287 276 268 258 252 247 247 249 245 243 243 243 241 241 244 246 248 244 239 237 234 226 230 225
34 16 284 309 335 356 3 7 21 4 1 9 0 4 2 350 347 343 2 350 9 360 357 353 353 351 353 354 355 351 347 344 340 339 335 337 333 334 333 333 331 329 328 325 317 310 302 308 311 313 312 310 311 309 310 310 309 309 307 304 302 293 278 264 257 253 247 243 247 244 243 244 246 244 242 243 246 247 248 242 235 236 229 231 229
85 255 308 299 318 333 339 25 3 21 355 3 2 3 347 354 347 353 357 355 8 357 349 348 347 353 356 356 356 348 343 340 337 335 334 333 328 324 325 328 329 326 324 323 319 315 310 308 305 303 305 307 306 307 306 306 306 304 301 296 295 292 291 280 259 248 247 249 248 244 242 243 246 247 246 245 244 245 247 245 244 231 232 226 229
173 234 259 344 316 302 355 5 8 7 358 7 10 353 357 357 358 355 354 2 2 347 337 340 351 351 355 1 358 351 347 343 338 338 337 335 332 330 326 322 321 319 323 319 317 314 313 313 312 306 302 299 300 303 303 302 302 301 300 299 295 292 287 286 283 274 262 251 246 246 240 241 244 247 246 244 244 246 246 245 243 240 228 230 226
192 208 268 271 283 334 348 348 345 347 358 18 8 5 359 359 353 352 346 4 344 329 335 347 353 358 358 3 356 351 342 346 344 340 338 331 329 325 323 322 320 315 314 314 316 314 309 310 308 307 305 300 295 292 297 297 299 297 297 295 294 292 286 283 281 276 265 254 249 248 242 240 241 246 244 244 243 242 247 246 244 244 237 222 228
183 238 250 256 272 346 328 336 353 5 20 24 353 350 349 355 351 350 2 354 329 331 344 350 356 354 1 353 348 349 347 344 338 329 323 321 322 324 325 322 319 319 315 308 306 305 309 307 305 301 301 301 296 293 290 289 290 294 293 291 293 294 289 284 280 275 269 259 249 245 243 240 241 243 245 244 242 243 243 246 248 244 239 234 220
180 221 223 225 345 275 303 315 345 2 41 355 351 332 342 344 3 7 354 334 331 327 338 342 336 343 349 348 340 345 344 335 326 324 320 318 317 322 322 326 324 322 323 319 315 307 299 295 299 302 295 291 290 290 287 286 283 283 289 289 292 290 290 291 286 280 274 267 255 248 244 243 240 241 243 245 243 241 239 242 248 250 238 242 231
215 191 197 44 233 288 257 294 295 52 42 319 307 308 354 9 19 348 335 325 314 307 307 304 314 315 323 333 344 346 339 329 324 320 318 316 322 326 325 324 322 327 327 320 314 309 304 302 295 290 295 298 291 286 281 277 282 280 279 282 288 287 289 290 287 285 278 272 267 256 245 242 242 240 239 242 243 241 240 238 242 247 246 237 243
189 217 93 231 235 233 239 249 199 31 286 291 325 2 351 12 1 325 308 298 286 276 272 266 267 284 327 346 351 348 334 326 321 318 321 325 322 315 314 315 321 324 321 319 317 316 310 308 306 302 292 289 291 293 291 283 276 278 276 277 278 283 289 286 283 283 284 278 271 260 250 243 240 240 241 239 240 241 239 237 238 244 246 245 241
156 140 176 193 253 253 239 235 201 297 309 312 332 355 13 346 321 285 279 271 268 256 260 252 250 322 8 1 351 341 329 319 317 320 324 322 317 315 316 320 324 325 322 322 316 313 309 306 309 306 300 293 287 282 285 286 285 279 276 278 276 278 282 281 282 281 279 279 271 267 259 249 240 239 239 240 238 237 236 235 237 239 244 244 244
177 175 188 168 231 251 231 201 279 267 291 272 297 332 288 266 256 263 265 263 265 264 260 259 331 19 9 350 333 322 319 313 317 323 318 316 316 313 312 313 316 315 312 311 316 315 316 311 308 307 305 299 296 290 284 281 283 284 278 272 274 274 275 278 280 279 278 277 275 267 259 251 242 238 235 238 240 237 230 231 233 236 240 243 244
177 167 185 196 221 255 241 210 241 234 269 280 313 289 281 265 261 261 258 259 259 264 261 264 36 32 338 314 307 309 310 309 314 318 321 319 320 318 316 318 322 322 319 317 314 315 310 306 302 302 299 298 298 293 290 285 282 279 282 275 270 274 271 272 276 278 278 274 275 272 265 250 243 235 235 236 238 239 232 223 228 232 236 237 242
178 173 181 175 199 217 224 223 214 222 210 218 232 241 239 243 247 246 252 244 254 260 254 268 55 349 297 283 297 308 311 312 321 327 325 322 321 320 319 320 321 320 315 313 309 309 306 308 308 308 305 300 296 295 293 289 284 282 278 276 275 270 270 270 270 273 272 271 269 268 263 262 251 241 234 232 234 234 235 227 223 228 232 233 236
173 181 184 204 213 226 227 220 209 226 233 221 243 244 255 263 259 263 266 255 264 271 258 337 36 291 269 276 308 318 319 328 336 336 332 326 321 319 318 319 317 310 304 301 300 301 305 312 310 305 295 286 290 289 290 290 286 280 275 273 274 272 270 267 268 267 268 265 263 262 264 257 252 244 237 231 231 232 230 229 223 223 230 229 230
173 173 186 199 203 229 213 242 222 217 232 213 257 261 258 268 280 286 280 260 259 263 249 187 207 235 240 256 305 309 322 328 330 330 324 318 315 311 309 305 298 294 293 294 294 301 311 310 303 303 300 292 282 282 286 285 281 279 276 274 271 272 268 267 264 262 262 262 260 258 258 256 251 246 237 232 229 230 229 226 223 222 225 226 224
174 180 184 198 203 197 175 213 225 215 181 228 250 226 259 283 251 239 259 271 287 292 293 323 297 292 309 327 335 332 329 329 329 325 319 312 306 303 297 292 288 288 287 285 290 301 302 299 301 299 298 296 287 284 281 287 286 280 275 278 276 266 266 263 262 262 260 261 258 256 253 252 248 244 239 234 231 227 227 226 222 222 224 225 220
198 184 189 197 198 199 181 212 222 193 202 204 210 218 208 214 232 260 271 296 310 311 322 340 333 327 332 333 331 326 326 326 320 317 309 301 298 295 290 292 300 297 294 295 300 300 301 296 301 298 289 289 287 288 281 293 277 279 291 286 275 275 268 266 261 257 254 251 253 251 249 248 246 244 239 235 231 228 226 223 222 221 221 222 221
180 186 196 187 200 196 204 205 204 196 214 215 201 219 223 230 214 249 249 273 251 256 261 271 284 280 283 295 287 283 290 296 296 297 294 290 294 300 301 305 306 310 309 306 303 300 300 299 299 297 301 282 277 285 291 277 280 280 278 285 277 289 276 256 248 253 253 252 249 246 244 244 245 243 240 237 234 227 224 223 221 219 219 219 219
177 187 190 194 195 192 200 200 211 209 216 219 216 218 226 235 241 243 258 237 271 269 268 278 282 289 293 279 280 293 300 294 291 285 282 284 292 294 296 297 298 300 298 300 301 296 294 292 293 289 284 295 297 292 288 288 284 291 275 254 281 276 285 270 280 264 272 290 283 268 254 245 245 242 237 236 234 230 225 220 221 219 218 217 216
185 186 191 193 184 193 198 194 205 210 213 214 216 222 232 257 251 259 238 260 239 241 243 256 223 248 258 245 248 250 266 280 282 277 278 286 287 291 294 295 294 295 294 292 292 291 294 289 288 285 285 294 295 292 284 278 281 278 281 281 270 260 256 280 312 285 260 266 272 284 291 285 259 244 237 234 233 229 225 222 219 219 218 214 214
189 193 188 189 179 193 192 204 218 218 220 221 214 210 225 284 334 350 351 353 338 343 342 332 325 324 313 309 309 306 298 290 286 288 286 287 291 293 293 295 294 293 291 288 290 293 289 287 279 278 279 275 283 289 285 278 273 274 268 267 266 272 285 289 315 289 285 231 275 274 271 269 277 271 243 233 229 225 223 223 218 218 214 213 213
199 184 185 188 188 186 188 200 209 222 220 221 206 204 231 263 317 310 270 286 294 271 250 274 283 290 287 292 292 287 281 281 281 277 284 288 292 293 291 288 287 287 289 289 289 286 289 285 283 274 275 279 276 279 280 286 282 267 264 263 264 262 263 272 264 287 288 291 240 271 281 274 277 287 280 245 231 229 224 218 218 216 215 212 211
185 174 183 189 188 198 188 204 217 221 229 219 216 198 249 280 311 301 295 299 271 283 294 284 275 282 291 291 291 283 277 274 281 285 288 292 291 288 286 287 286 284 285 285 285 289 287 280 276 275 273 267 267 270 281 275 272 277 282 288 281 271 261 256 256 257 274 286 293 272 260 272 273 267 273 284 257 235 227 219 217 214 214 212 210
172 174 186 189 193 193 188 194 217 224 239 233 225 240 255 273 255 279 300 275 274 281 292 287 288 289 286 288 286 283 279 270 269 284 287 289 293 290 286 283 284 283 284 281 281 280 280 285 286 279 274 272 265 268 271 272 272 274 286 276 277 272 266 255 252 246 248 269 276 284 295 292 277 266 271 271 272 254 232 223 216 214 211 210 207
180 178 182 177 186 185 192 188 231 223 231 242 218 282 261 251 277 281 291 292 281 290 287 297 298 299 293 290 288 290 289 289 282 274 281 279 280 281 281 279 280 282 281 280 277 276 276 277 277 278 277 274 269 266 264 266 265 269 263 265 266 272 271 260 248 244 249 242 264 279 280 289 294 288 276 273 280 275 245 225 219 213 211 209 209
174 176 178 181 184 191 200 204 225 232 237 244 252 282 272 259 279 292 287 288 297 304 310 305 305 305 299 297 296 296 295 295 296 292 277 282 278 276 278 277 276 277 278 277 275 272 273 272 274 271 270 265 266 263 266 267 268 266 264 261 264 261 258 258 251 240 238 246 259 263 275 264 271 282 279 279 284 283 269 237 220 215 210 207 205